When you browse on this site, cookies collect data to enhance your experience and personalize the content and advertising you see.
Visit our Privacy Policy to learn more. By continuing to use the site, you agree to this use of cookies and data.
  • In France
  • List of Countries
  • For 7 days
  • Water Temperature
  • Weather Map
  • Weather Widgets
  • user-avatar
    Login

    Hourly Weather Thunder Bay

    Today, 5 April, Sunday

    Time Temperature Precipitation Wind Pressure Humidity
    00:00 -3°C° 0 mm 1 mps 741 mmHg 89%
    01:00 -3°C° 0 mm 1 mps 741 mmHg 89%
    02:00 -3°C° 0 mm 1 mps 741 mmHg 88%
    03:00 -4°C° 0 mm 1 mps 741 mmHg 88%
    04:00 -3°C° 0 mm 1 mps 741 mmHg 87%
    05:00 -3°C° 0 mm 1 mps 742 mmHg 86%
    06:00 -3°C° 0 mm 1 mps 742 mmHg 85%
    07:00 -2°C° 0 mm 1 mps 742 mmHg 79%
    08:00 0°C° 0 mm 1 mps 742 mmHg 73%
    09:00 +2°C° 0 mm 1 mps 742 mmHg 67%
    10:00 +3°C° 0 mm 1 mps 742 mmHg 67%
    11:00 +2°C° 0 mm 2 mps 741 mmHg 67%
    12:00 +3°C° 0 mm 2 mps 741 mmHg 68%
    13:00 +3°C° 0 mm 2 mps 741 mmHg 68%
    14:00 +3°C° 0 mm 2 mps 741 mmHg 68%
    15:00 +3°C° 0 mm 2 mps 740 mmHg 68%
    16:00 +2°C° 0 mm 2 mps 740 mmHg 72%
    17:00 +2°C° 0 mm 1 mps 740 mmHg 76%
    18:00 +1°C° 0 mm 1 mps 740 mmHg 81%
    19:00 +1°C° 0 mm 1 mps 740 mmHg 81%
    20:00 0°C° 0 mm 1 mps 740 mmHg 82%
    21:00 0°C° 0 mm 1 mps 740 mmHg 82%
    22:00 0°C° 0 mm 1 mps 739 mmHg 82%
    23:00 -1°C° 0 mm 0 mps 739 mmHg 82%

    Tomorrow, 6 April, Monday

    Time Temperature Precipitation Wind Pressure Humidity
    00:00 -1°C° 0 mm 0 mps 739 mmHg 82%
    01:00 -1°C° 0 mm 0 mps 739 mmHg 81%
    02:00 -1°C° 0 mm 0 mps 739 mmHg 80%
    03:00 +1°C° 0 mm 1 mps 739 mmHg 79%
    04:00 0°C° 0 mm 0 mps 739 mmHg 81%
    05:00 0°C° 0 mm 0 mps 738 mmHg 83%
    06:00 0°C° 0 mm 0 mps 738 mmHg 86%
    07:00 +1°C° 0 mm 0 mps 738 mmHg 85%
    08:00 +3°C° 0 mm 1 mps 738 mmHg 85%
    09:00 +3°C° 0 mm 1 mps 738 mmHg 84%
    10:00 +4°C° 0 mm 1 mps 738 mmHg 83%
    11:00 +5°C° 0 mm 1 mps 737 mmHg 81%
    12:00 +4°C° 0 mm 2 mps 737 mmHg 80%
    13:00 +4°C° 0 mm 2 mps 737 mmHg 81%
    14:00 +4°C° 0 mm 2 mps 736 mmHg 82%
    15:00 +3°C° 0 mm 3 mps 736 mmHg 83%
    16:00 +2°C° 0 mm 3 mps 736 mmHg 86%
    17:00 +2°C° 0 mm 3 mps 735 mmHg 89%
    18:00 +1°C° 0 mm 3 mps 735 mmHg 92%
    19:00 +1°C° 0.1 mm 3 mps 735 mmHg 93%
    20:00 0°C° 0.1 mm 3 mps 735 mmHg 94%
    21:00 0°C° 0.1 mm 3 mps 735 mmHg 95%
    22:00 0°C° 0 mm 3 mps 734 mmHg 96%
    23:00 0°C° 0 mm 3 mps 734 mmHg 96%

    Day after tomorrow, 7 April, Tuesday

    Time Temperature Precipitation Wind Pressure Humidity
    00:00 +1°C° 0 mm 3 mps 733 mmHg 97%
    01:00 0°C° 0.2 mm 4 mps 732 mmHg 97%
    02:00 0°C° 0.2 mm 4 mps 732 mmHg 96%
    03:00 0°C° 0.2 mm 4 mps 731 mmHg 95%
    04:00 -1°C° 1.1 mm 5 mps 730 mmHg 95%
    05:00 -2°C° 1.1 mm 6 mps 730 mmHg 95%
    06:00 -2°C° 1.1 mm 6 mps 729 mmHg 95%
    07:00 -2°C° 1.9 mm 6 mps 728 mmHg 96%
    08:00 -2°C° 1.9 mm 6 mps 728 mmHg 97%
    09:00 -1°C° 1.9 mm 5 mps 727 mmHg 98%
    10:00 -1°C° 1.3 mm 5 mps 727 mmHg 98%
    11:00 -1°C° 1.3 mm 5 mps 726 mmHg 98%
    12:00 -1°C° 1.3 mm 5 mps 726 mmHg 97%
    13:00 0°C° 0.1 mm 4 mps 726 mmHg 98%
    14:00 +1°C° 0.1 mm 3 mps 725 mmHg 98%
    15:00 +1°C° 0.1 mm 3 mps 725 mmHg 98%
    16:00 +2°C° 0 mm 2 mps 725 mmHg 99%
    17:00 +3°C° 0 mm 1 mps 725 mmHg 99%
    18:00 +3°C° 0 mm 1 mps 725 mmHg 99%
    19:00 +3°C° 0 mm 1 mps 726 mmHg 99%
    20:00 +3°C° 0 mm 1 mps 726 mmHg 98%
    21:00 +3°C° 0 mm 1 mps 726 mmHg 98%
    22:00 +2°C° 0 mm 2 mps 726 mmHg 96%
    23:00 +2°C° 0 mm 2 mps 726 mmHg 93%

    8 April, Wednesday

    Time Temperature Precipitation Wind Pressure Humidity
    00:00 +1°C° 0 mm 3 mps 726 mmHg 91%
    01:00 0°C° 0 mm 3 mps 726 mmHg 91%
    02:00 0°C° 0 mm 3 mps 726 mmHg 91%
    03:00 -1°C° 0 mm 3 mps 726 mmHg 91%
    04:00 -1°C° 0 mm 2 mps 727 mmHg 92%
    05:00 -2°C° 0 mm 2 mps 727 mmHg 93%
    06:00 -2°C° 0 mm 2 mps 727 mmHg 94%
    07:00 +1°C° 0 mm 2 mps 727 mmHg 89%
    08:00 +2°C° 0 mm 2 mps 726 mmHg 84%
    09:00 +5°C° 0 mm 1 mps 726 mmHg 80%
    10:00 +4°C° 0.5 mm 2 mps 726 mmHg 83%
    11:00 +2°C° 0.5 mm 3 mps 726 mmHg 87%
    12:00 +1°C° 0.5 mm 4 mps 725 mmHg 90%
    13:00 +2°C° 0.2 mm 5 mps 725 mmHg 81%
    14:00 +2°C° 0.2 mm 6 mps 725 mmHg 71%
    15:00 +3°C° 0.2 mm 6 mps 725 mmHg 61%
    16:00 +2°C° 0 mm 6 mps 725 mmHg 65%
    17:00 +1°C° 0 mm 5 mps 725 mmHg 69%
    18:00 0°C° 0 mm 5 mps 725 mmHg 72%
    19:00 0°C° 0 mm 5 mps 724 mmHg 73%
    20:00 -2°C° 0 mm 6 mps 724 mmHg 73%
    21:00 -3°C° 0 mm 6 mps 724 mmHg 73%
    22:00 -3°C° 0 mm 6 mps 724 mmHg 76%
    23:00 -4°C° 0 mm 7 mps 723 mmHg 79%

    9 April, Thursday

    Time Temperature Precipitation Wind Pressure Humidity
    00:00 -4°C° 0 mm 7 mps 723 mmHg 82%
    01:00 -5°C° 0.1 mm 8 mps 723 mmHg 81%
    02:00 -5°C° 0.1 mm 8 mps 722 mmHg 80%
    03:00 -5°C° 0.1 mm 9 mps 722 mmHg 78%
    04:00 -5°C° 0 mm 8 mps 722 mmHg 78%
    05:00 -6°C° 0 mm 8 mps 723 mmHg 77%
    06:00 -6°C° 0 mm 8 mps 723 mmHg 76%
    07:00 -5°C° 0 mm 8 mps 723 mmHg 74%
    08:00 -4°C° 0 mm 8 mps 723 mmHg 71%
    09:00 -4°C° 0 mm 8 mps 723 mmHg 69%
    10:00 -2°C° 0 mm 8 mps 724 mmHg 68%
    11:00 -1°C° 0 mm 8 mps 724 mmHg 66%
    12:00 -1°C° 0 mm 8 mps 724 mmHg 65%
    13:00 0°C° 0.1 mm 7 mps 725 mmHg 65%
    14:00 0°C° 0.1 mm 7 mps 725 mmHg 66%
    15:00 0°C° 0.1 mm 7 mps 725 mmHg 67%
    16:00 -1°C° 0 mm 7 mps 726 mmHg 69%
    17:00 -1°C° 0 mm 6 mps 726 mmHg 72%
    18:00 -1°C° 0 mm 5 mps 726 mmHg 74%
    19:00 -1°C° 0.1 mm 5 mps 727 mmHg 78%
    20:00 -2°C° 0.1 mm 5 mps 727 mmHg 82%
    21:00 -3°C° 0.1 mm 4 mps 728 mmHg 86%
    22:00 -3°C° 0 mm 4 mps 728 mmHg 85%
    23:00 -4°C° 0 mm 4 mps 728 mmHg 85%

    10 April, Friday

    Time Temperature Precipitation Wind Pressure Humidity
    00:00 -4°C° 0 mm 3 mps 728 mmHg 84%
    01:00 -4°C° 0 mm 3 mps 728 mmHg 84%
    02:00 -5°C° 0 mm 3 mps 729 mmHg 84%
    03:00 -5°C° 0 mm 3 mps 729 mmHg 83%
    04:00 -5°C° 0 mm 3 mps 729 mmHg 81%
    05:00 -5°C° 0 mm 3 mps 729 mmHg 79%
    06:00 -5°C° 0 mm 4 mps 730 mmHg 77%
    07:00 -4°C° 0 mm 4 mps 730 mmHg 71%
    08:00 -3°C° 0 mm 4 mps 730 mmHg 64%
    09:00 -2°C° 0 mm 4 mps 730 mmHg 58%
    10:00 0°C° 0 mm 3 mps 730 mmHg 55%
    11:00 0°C° 0 mm 3 mps 730 mmHg 52%
    12:00 +1°C° 0 mm 3 mps 730 mmHg 50%
    13:00 +2°C° 0 mm 3 mps 731 mmHg 50%
    14:00 +2°C° 0 mm 3 mps 731 mmHg 50%
    15:00 +2°C° 0 mm 3 mps 731 mmHg 51%
    16:00 +2°C° 0 mm 2 mps 731 mmHg 55%
    17:00 +2°C° 0 mm 2 mps 731 mmHg 59%
    18:00 +1°C° 0 mm 2 mps 731 mmHg 63%
    19:00 -1°C° 0 mm 2 mps 731 mmHg 68%
    20:00 -2°C° 0 mm 2 mps 732 mmHg 72%
    21:00 -3°C° 0 mm 2 mps 732 mmHg 77%
    22:00 -3°C° 0 mm 2 mps 732 mmHg 78%
    23:00 -2°C° 0 mm 1 mps 733 mmHg 79%
    Show more